Location: Newark
(47.3150°N, 5.1150°E)
Time: 19:06:28
(UTC+00:00)

AO-7 - Pass Details

Date: 17 December 2019
Orbit: 1440 x 1458 km, 101.8° (Epoch: 28 January)

Event Time Altitude Azimuth Distance (km) Brightness Sun altitude
Rises 04:22:21 0° 17° (NNE) 4,563 ? -29.1°
Reaches altitude 10° 04:25:10 10° 14° (NNE) 3,584 ? -28.6°
Maximum altitude 04:33:20 62° 297° (WNW) 1,618 ? -27.2°
Enters shadow 04:36:52 37° 234° (SW) 2,130 ? -26.6°
